Volver al catálogo

STARLINK-4629

ActivoComunicacionesVLEO
NORAD 53968·PAYLOAD·🇺🇸 United States

Lanzado Oct 5, 2022 desde Vandenberg Space Force Base

Loading…

Próximos Pases (próximas 24 horas)

TLE

ActualizadoSource: CelesTrak SupGP

Época: Sep 14, 2026, 13:17 UTC

1 53968C 22125E   26257.55395833  .00014900  00000+0  44018-3 0  2576
2 53968  53.1580  89.3098 0001142  95.4398 302.2165 15.34386807    13

Sigue STARLINK-4629 en tiempo real con AllMySat

Download on the App Store